Flag for U.S.A. Weather past 2 weeks in Pueblo, Colorado, U.S.A.

Now
26 °F

Sunny.


Feels Like: 22 °F
Forecast: 19 / 52 °F
Wind: 3 mph from Southwest

Location: Pueblo Memorial Airport

Current Time: Dec 20, 2014 at 9:35:15 AM

Latest Report: Dec 20, 2014 at 8:53 AM


Visibility: 10 mi

Pressure: 30.13 "Hg

Humidity: 74%

Dew point: 19 °F

Location of PuebloLocation

Historic Weather in Pueblo — Graph

°F

Pueblo temperature yesterday

Maximum temperature yesterday: 48 °F (at 1:53 PM)
Minimum temperature yesterday: 18 °F (at 4:53 AM)
Average temperature yesterday: 31 °F

Past Weeks' High & Low Weather Summary

 TemperatureHumidityPressure
High61 °F (Dec 5, 2:53 PM)100% (Dec 13, 1:53 AM)30.49 "Hg (Dec 13, 1:53 AM)
Low15 °F (Dec 16, 6:53 AM)13% (Dec 10, 1:53 PM)29.59 "Hg (Dec 14, 3:53 AM)
Average34 °F62%30.13 "Hg
* Reported Dec 5 7:53 AM — Dec 20 7:53 AM, Pueblo, Weather by CustomWeather, © 2014

Note: Actual official high and low records may vary slightly from our data, if they occured in-between our weather recording intervals... More about our weather records

Advertising

Pueblo weather history for previous 24 hours

 ConditionsComfort  
Time TempWeatherWind HumidityBarometerVisibility
7:53 AM
Dec 20
22 °FSunny.No wind82%30.13 "Hg10 mi
6:53 AM17 °FClear.5 mph83%30.16 "Hg10 mi
5:53 AM19 °FClear.No wind81%30.13 "Hg10 mi
4:53 AM19 °FClear.5 mph85%30.09 "Hg10 mi
3:53 AM19 °FClear.No wind85%30.08 "Hg10 mi
2:53 AM19 °FClear.No wind85%30.07 "Hg10 mi
1:53 AM21 °FClear.No wind85%30.05 "Hg10 mi
12:53 AM22 °FClear.No wind85%30.06 "Hg10 mi
11:53 PM
Dec 19
27 °FClear.6 mph75%30.07 "Hg10 mi
10:53 PM26 °FClear.3 mph77%30.09 "Hg10 mi
9:53 PM27 °FClear.5 mph78%30.11 "Hg10 mi
8:53 PM26 °FClear.8 mph77%30.13 "Hg10 mi
7:53 PM28 °FClear.5 mph75%30.14 "Hg10 mi
6:53 PM29 °FClear.6 mph69%30.15 "Hg10 mi
5:53 PM32 °FClear.8 mph56%30.11 "Hg10 mi
4:53 PM42 °FClear.5 mph39%30.08 "Hg10 mi
3:53 PM46 °FSunny.8 mph33%30.06 "Hg10 mi
2:53 PM47 °FSunny.7 mph32%30.06 "Hg10 mi
1:53 PM48 °FSunny.No wind32%30.05 "Hg10 mi
12:53 PM47 °FSunny.6 mph34%30.06 "Hg10 mi
11:53 AM45 °FSunny.3 mph40%30.10 "Hg10 mi
9:53 AM35 °FSunny.8 mph70%30.19 "Hg10 mi
Weather by CustomWeather, © 2014

See weather overviewHow to use our weather pages